Find Kosmos-2181

NORAD ID: 21902 Int'l Des: 1992-012 Owner: VMFR Country: RU operational
LEOCIRCULARPOLAR

リアルタイム位置

3D地球を読み込み中...

Kosmos-2181について

説明を読み込み中...

次回通過

Passes for default location (London). Set your location on the main map for personalized predictions.

高度履歴

Loading altitude history...

軌道要素

1 21902U 92012A 26122.06868137 .00000066 00000-0 55901-4 0 9996
2 21902 82.9443 341.9819 0027812 205.4119 318.9374 13.72568317709995
Epoch: May 2, 2026 • Age: 12 hours

現在のステータス

高度 1016.4 km
速度 7.34 km/s
衛星直下点 69.51°N, 61.23°W
打ち上げ日 Mar 9, 1992
運用期間 34.1 years
タイプ other

技術仕様

分類 Payload
質量 800.00 kg
乾燥質量 800.00 kg
総質量 800.00 kg
長さ 5.00 m
直径 2.10 m
スパン 17.00 m
形状 Cyl + Ant
製造者 POL
バスタイプ KAUR-1 11F643
フェーズステータス In Orbit
所有者/国 VMFR/RU

Most Searched